TimePST,TemperatureF,Dew PointF,Humidity,Sea Level PressureIn,VisibilityMPH,Wind Direction,Wind SpeedMPH,Gust SpeedMPH,PrecipitationIn,Events,Conditions,WindDirDegrees,DateUTC
12:53 AM,43.0,27.0,53,29.69,-9999.0,South,18.4,27.6,N/A,,Unknown,170,2013-03-06 08:53:00
1:53 AM,42.1,27.0,55,29.67,-9999.0,South,20.7,-,N/A,,Unknown,170,2013-03-06 09:53:00
2:53 AM,39.0,28.0,65,29.67,-9999.0,South,15.0,-,N/A,,Unknown,180,2013-03-06 10:53:00
3:53 AM,41.0,27.0,57,29.66,-9999.0,South,18.4,-,N/A,,Unknown,180,2013-03-06 11:53:00
4:53 AM,39.9,26.1,58,29.70,-9999.0,SSW,11.5,-,N/A,,Unknown,200,2013-03-06 12:53:00
5:53 AM,37.9,27.0,65,29.71,-9999.0,East,4.6,-,N/A,,Unknown,90,2013-03-06 13:53:00
6:53 AM,39.0,26.1,60,29.71,-9999.0,North,4.6,-,N/A,,Unknown,350,2013-03-06 14:53:00
7:53 AM,41.0,27.0,57,29.70,-9999.0,SSE,17.3,24.2,N/A,,Unknown,160,2013-03-06 15:53:00
8:53 AM,44.1,25.0,47,29.70,-9999.0,South,20.7,27.6,N/A,,Unknown,180,2013-03-06 16:53:00
9:53 AM,46.9,23.0,39,29.68,-9999.0,SSW,24.2,29.9,N/A,,Unknown,200,2013-03-06 17:53:00
10:53 AM,50.0,24.1,36,29.67,-9999.0,South,19.6,-,N/A,,Unknown,180,2013-03-06 18:53:00
11:53 AM,52.0,21.0,30,29.64,-9999.0,South,19.6,26.5,N/A,,Unknown,190,2013-03-06 19:53:00
12:53 PM,53.1,21.0,29,29.63,-9999.0,SW,17.3,27.6,N/A,,Unknown,220,2013-03-06 20:53:00
1:53 PM,52.0,18.0,26,29.65,-9999.0,WSW,16.1,25.3,N/A,,Unknown,250,2013-03-06 21:53:00
2:53 PM,45.0,27.0,49,29.71,-9999.0,NW,20.7,31.1,N/A,,Unknown,320,2013-03-06 22:53:00
2:57 PM,45.0,27.0,49,29.79,-9999.0,NW,24.2,28.8,N/A,,Unknown,320,2013-03-06 22:57:00
3:53 PM,45.0,26.1,48,29.74,-9999.0,NW,12.7,18.4,N/A,,Unknown,310,2013-03-06 23:53:00
4:53 PM,41.0,26.1,55,29.77,-9999.0,North,12.7,-,N/A,,Unknown,10,2013-03-07 00:53:00
5:53 PM,37.9,25.0,60,29.82,-9999.0,NNW,8.1,-,N/A,,Unknown,330,2013-03-07 01:53:00
6:53 PM,35.1,24.1,64,29.85,-9999.0,East,6.9,-,N/A,,Unknown,90,2013-03-07 02:53:00
7:53 PM,33.1,24.1,70,29.86,-9999.0,Calm,Calm,-,N/A,,Unknown,0,2013-03-07 03:53:00
8:53 PM,34.0,23.0,64,29.86,-9999.0,Calm,Calm,-,N/A,,Unknown,0,2013-03-07 04:53:00
9:53 PM,33.1,26.1,75,29.86,-9999.0,Calm,Calm,-,N/A,,Unknown,0,2013-03-07 05:53:00
10:53 PM,33.1,27.0,78,29.85,-9999.0,Calm,Calm,-,N/A,,Unknown,0,2013-03-07 06:53:00
11:53 PM,33.1,24.1,70,29.83,-9999.0,Calm,Calm,-,N/A,,Unknown,0,2013-03-07 07:53:00